Total_Precipitation_Accumulation
1.96 2.38 2.67 3.22 3.82 4.20 4.60 4.76 4.78 4.70 4.54 4.20 3.91 3.68 3.44 3.22 2.96 2.78 2.69 2.60 2.51 2.71 3.14 2.95 3.19 3.14 3.12 3.14 3.20 3.33 3.27 2.98 3.17 3.24 2.81 2.25 1.83 1.80 1.58 1.52 1.56 1.61 1.60
1.86 2.37 2.66 2.88 3.34 3.85 4.32 4.62 4.77 4.66 4.29 3.94 3.77 3.67 3.64 3.26 2.95 2.92 3.05 2.87 2.89 2.92 2.94 3.11 3.06 3.10 3.21 3.16 3.16 3.30 3.11 2.76 3.02 3.36 3.42 2.76 2.35 1.90 1.44 1.55 1.66 1.78 1.86
2.13 2.38 2.56 2.72 3.01 3.41 3.72 3.83 3.99 3.95 3.80 3.84 3.87 3.82 3.84 3.42 3.34 3.34 3.34 3.12 3.13 3.14 3.13 3.08 2.96 2.96 2.77 2.83 2.92 2.95 2.98 2.90 2.82 3.15 3.48 3.05 2.57 2.23 1.70 1.58 1.60 1.82 2.09
1.78 1.93 2.24 2.55 2.73 2.97 3.30 3.53 3.58 3.53 3.45 3.56 3.62 3.53 3.35 3.21 3.36 3.66 3.59 3.29 3.08 2.94 2.75 2.68 2.82 2.83 2.63 2.64 2.33 2.46 2.67 2.68 2.53 2.79 2.88 2.92 2.90 2.82 2.16 1.73 1.57 1.72 1.93
1.53 1.64 1.84 2.17 2.28 2.58 2.86 3.10 3.36 3.46 3.41 3.47 3.43 3.46 3.30 3.30 3.37 3.36 3.37 3.15 2.96 2.63 2.30 2.33 2.52 2.49 2.41 2.31 2.20 2.35 2.26 2.22 2.27 2.48 2.68 2.76 2.82 2.71 2.56 2.17 2.09 2.02 1.90
1.37 1.55 1.71 1.98 2.12 2.24 2.37 2.51 2.71 2.98 3.15 3.21 3.19 3.22 3.16 3.14 3.07 3.00 2.87 2.68 2.53 2.28 2.02 1.94 2.10 2.21 2.23 2.19 2.18 2.25 2.15 2.18 2.32 2.32 2.38 2.61 2.64 2.60 2.76 2.39 2.23 2.18 1.94
1.07 1.29 1.44 1.59 1.77 1.90 1.99 2.08 2.28 2.60 2.76 2.76 2.75 2.87 2.93 2.92 2.84 2.81 2.65 2.44 2.21 1.95 1.90 1.93 2.01 2.05 2.09 1.96 2.05 2.12 2.16 2.30 2.36 2.29 2.24 2.37 2.44 2.56 2.79 2.73 2.47 2.33 2.13
0.83 0.99 1.23 1.50 1.65 1.61 1.69 1.79 2.04 2.29 2.40 2.34 2.47 2.70 2.77 2.85 2.74 2.75 2.49 2.24 2.04 1.95 2.02 1.99 1.87 1.81 1.91 1.81 2.06 2.00 2.06 2.26 2.31 2.09 2.31 2.37 2.41 2.69 2.90 3.00 3.09 2.80 2.52
0.82 0.89 0.98 1.17 1.25 1.27 1.36 1.51 1.89 2.20 2.34 2.38 2.50 2.60 2.68 2.67 2.58 2.44 2.25 2.05 2.06 2.01 2.13 2.08 1.96 1.85 1.93 2.05 2.32 2.26 2.22 2.44 2.40 2.35 2.53 2.51 2.48 2.65 2.77 2.96 3.17 3.26 2.94
0.62 0.70 0.74 0.86 0.98 1.17 1.42 1.59 1.72 2.03 2.18 2.23 2.33 2.37 2.58 2.51 2.33 2.23 2.04 1.89 1.81 1.85 2.03 2.16 2.08 2.01 2.04 2.19 2.38 2.39 2.54 2.67 2.64 2.67 2.77 2.74 2.61 2.72 2.80 2.83 3.06 3.33 3.25
0.51 0.57 0.73 0.86 1.01 1.17 1.35 1.42 1.47 1.63 1.79 1.90 2.08 2.07 2.09 2.17 2.23 2.09 1.85 1.77 1.77 1.82 1.89 2.09 2.16 2.13 2.16 2.24 2.29 2.27 2.57 2.69 2.68 2.64 2.65 2.64 2.76 2.79 2.72 2.82 2.98 3.23 3.29
0.60 0.63 0.82 0.99 1.09 1.23 1.25 1.26 1.30 1.43 1.59 1.77 1.96 2.03 2.04 2.10 2.13 2.01 1.84 1.79 1.82 1.88 1.92 2.04 2.07 1.98 1.97 2.15 2.20 2.26 2.54 2.68 2.59 2.55 2.56 2.36 2.42 2.48 2.38 2.51 2.59 2.72 2.95
0.70 0.78 0.88 0.93 0.96 1.04 1.16 1.16 1.12 1.26 1.44 1.65 1.99 2.16 2.18 2.14 2.09 1.94 1.73 1.67 1.68 1.78 1.83 1.86 1.88 1.92 2.02 2.12 2.13 2.14 2.17 2.19 2.29 2.50 2.61 2.41 2.38 2.29 2.28 2.30 2.28 2.36 2.48
0.74 0.85 0.87 0.95 0.93 0.90 0.99 0.98 1.02 1.12 1.36 1.56 1.77 1.88 1.79 1.75 1.80 1.73 1.61 1.54 1.56 1.63 1.72 1.79 1.89 1.94 1.99 2.03 2.10 2.17 2.10 2.08 2.13 2.27 2.33 2.31 2.27 2.23 2.31 2.21 2.18 2.25 2.38
0.67 0.75 0.76 0.80 0.83 0.85 0.93 0.88 0.90 0.95 1.10 1.29 1.40 1.52 1.54 1.52 1.52 1.58 1.61 1.63 1.72 1.70 1.77 1.84 1.86 1.86 1.85 1.78 1.81 1.90 1.92 2.04 2.00 1.91 1.92 1.94 1.98 1.98 1.99 1.85 2.00 2.20 2.31
0.48 0.47 0.64 0.74 0.71 0.71 0.75 0.70 0.75 0.89 1.04 1.14 1.25 1.46 1.60 1.63 1.62 1.66 1.75 1.79 1.78 1.79 1.82 1.78 1.83 1.84 1.60 1.77 1.79 1.79 1.89 1.96 1.96 1.87 1.77 1.67 1.66 1.60 1.60 1.56 1.64 1.89 2.08
0.46 0.42 0.51 0.68 0.68 0.69 0.68 0.76 0.89 1.01 1.12 1.27 1.40 1.58 1.69 1.78 1.79 1.76 1.87 1.83 1.84 1.90 1.86 1.79 1.79 1.83 1.89 1.93 1.77 1.62 1.59 1.70 1.76 1.74 1.72 1.52 1.42 1.56 1.53 1.57 1.55 1.56 1.70
0.47 0.47 0.48 0.51 0.57 0.63 0.69 0.83 1.11 1.35 1.41 1.55 1.73 1.82 1.91 1.86 1.84 1.86 1.89 1.97 2.05 2.09 2.06 2.01 1.92 1.91 1.88 1.85 1.65 1.64 1.59 1.64 1.65 1.68 1.72 1.70 1.60 1.62 1.72 1.70 1.64 1.53 1.48
0.49 0.52 0.57 0.59 0.67 0.73 0.76 0.95 1.18 1.48 1.65 1.70 1.80 1.94 2.02 2.05 2.07 2.10 2.07 2.14 2.26 2.22 2.13 2.08 2.09 2.02 2.03 2.09 1.91 1.92 1.78 1.80 1.82 1.85 1.85 1.80 1.69 1.79 1.73 1.66 1.66 1.60 1.57
0.61 0.62 0.65 0.77 0.94 1.01 1.02 1.15 1.27 1.42 1.61 1.68 1.80 1.97 2.20 2.25 2.28 2.42 2.50 2.44 2.39 2.24 2.26 2.25 2.22 2.21 2.25 2.48 2.29 2.11 1.97 1.99 1.98 2.06 2.04 2.06 1.88 1.86 1.77 1.64 1.66 1.67 1.68
0.72 0.70 0.73 0.88 1.11 1.24 1.28 1.38 1.51 1.61 1.62 1.70 1.85 2.05 2.23 2.32 2.39 2.55 2.62 2.57 2.52 2.48 2.43 2.35 2.41 2.40 2.38 2.54 2.31 2.13 2.01 2.07 2.20 2.19 2.10 2.12 2.11 1.93 1.92 1.83 1.75 1.73 1.71
0.82 0.85 0.90 1.04 1.25 1.42 1.39 1.45 1.54 1.58 1.63 1.64 1.75 1.89 2.06 2.09 2.18 2.44 2.53 2.60 2.61 2.55 2.45 2.40 2.28 2.33 2.32 2.26 2.14 2.05 2.00 2.09 2.20 2.25 2.17 2.13 2.11 1.90 1.82 1.67 1.63 1.65 1.53
0.85 0.92 0.98 1.14 1.38 1.54 1.57 1.64 1.54 1.62 1.67 1.69 1.82 1.97 2.05 2.10 2.20 2.30 2.34 2.42 2.48 2.42 2.32 2.34 2.29 2.25 2.27 2.25 2.01 1.81 1.77 1.81 1.84 1.98 2.10 2.03 1.93 1.73 1.54 1.50 1.45 1.33 1.18
0.79 0.85 0.96 1.03 1.13 1.33 1.50 1.61 1.67 1.73 1.75 1.76 1.82 1.91 2.03 2.04 2.08 2.21 2.30 2.39 2.48 2.55 2.45 2.34 2.24 2.23 2.19 2.07 1.88 1.69 1.62 1.72 1.84 1.94 2.00 1.88 1.76 1.57 1.42 1.32 1.21 1.12 1.13
0.83 0.85 0.93 0.96 1.01 1.10 1.23 1.32 1.45 1.58 1.64 1.70 1.76 1.78 1.83 1.92 2.01 2.04 2.11 2.10 2.20 2.24 2.22 2.16 2.13 2.13 2.07 1.91 1.83 1.67 1.56 1.67 1.85 1.93 1.95 1.81 1.73 1.64 1.51 1.41 1.34 1.30 1.29
0.90 0.91 0.93 0.91 0.94 1.00 1.16 1.27 1.38 1.53 1.65 1.72 1.75 1.68 1.64 1.71 1.76 1.81 1.78 1.79 1.75 1.78 1.76 1.77 1.77 1.73 1.65 1.53 1.40 1.39 1.42 1.49 1.64 1.68 1.78 1.83 1.78 1.71 1.61 1.49 1.39 1.32 1.28